period_start,C,m1,H,J0,J1,J2,J3,J4,J5,JA,JB,JC,JD,JJ,JK,JN,#
2016-04-22 00:03:02,0.03,3.27,0.00,13.29,17.84,22.10,15.32,51.38,1028.37,2071.00,2318.95,2456.93,2693.82,600.20,623.48,45.68,0000 0000 0000 0000 000000
2016-04-22 00:08:03,0.07,3.27,0.00,13.30,17.85,22.10,15.33,51.48,1028.39,2071.00,2318.08,2456.11,2693.04,600.21,623.58,45.73,0000 0000 0000 0000 000000
2016-04-22 00:13:05,0.06,3.28,0.00,13.31,17.86,22.13,15.34,51.51,1028.35,2071.00,2317.22,2455.76,2692.32,599.90,623.14,45.78,0000 0000 0000 0000 000000
2016-04-22 00:18:06,0.07,3.28,0.00,13.32,17.87,22.18,15.33,51.45,1028.36,2071.00,2316.30,2455.00,2691.51,599.83,623.14,45.83,0000 0000 0000 0000 000000
2016-04-22 00:23:08,0.07,3.28,0.00,13.33,17.87,22.19,15.34,51.53,1028.35,2071.00,2315.23,2454.14,2690.78,599.81,623.15,45.88,0000 0000 0000 0000 000000
2016-04-22 00:28:09,0.08,3.29,0.00,13.36,17.87,22.16,15.35,51.53,1028.36,2071.00,2314.15,2453.34,2689.88,599.74,622.95,45.94,0000 0000 0000 0000 000000
2016-04-22 00:33:10,0.07,3.29,0.00,13.38,17.87,22.24,15.32,51.57,1028.35,2071.00,2313.13,2452.67,2689.01,599.95,623.13,45.99,0000 0000 0000 0000 000000
2016-04-22 00:38:11,0.08,3.30,0.00,13.39,17.88,22.23,15.35,51.61,1028.34,2071.00,2311.89,2451.77,2688.07,599.80,623.02,46.04,0000 0000 0000 0000 000000
2016-04-22 00:43:13,0.08,3.30,0.00,13.41,17.89,22.26,15.34,51.55,1028.35,2071.00,2310.65,2450.88,2687.08,600.29,623.31,46.09,0000 0000 0000 0000 000000
2016-04-22 00:48:14,0.08,3.31,0.00,13.44,17.89,22.25,15.30,51.47,1028.38,2071.00,2309.50,2450.02,2686.15,599.98,622.97,46.14,0000 0000 0000 0000 000000
2016-04-22 00:53:15,0.08,3.31,0.00,13.44,17.90,22.25,15.39,51.66,1028.43,2070.98,2308.27,2449.11,2685.17,600.15,623.17,46.19,0000 0000 0000 0000 000000
2016-04-22 00:58:17,0.08,3.31,0.00,13.46,17.92,22.26,15.33,51.54,1028.49,2070.98,2307.23,2448.38,2684.30,600.01,623.11,46.24,0000 0000 0000 0000 000000
2016-04-22 01:03:18,0.04,3.32,0.00,13.48,17.92,22.30,15.34,51.59,1028.52,2070.97,2306.34,2447.90,2683.72,600.08,623.11,46.29,0000 0000 0000 0000 000000
2016-04-22 01:08:20,0.07,3.32,0.00,13.52,17.93,22.28,15.30,51.47,1028.50,2070.97,2305.40,2447.07,2682.83,600.10,623.01,46.34,0000 0000 0000 0000 000000
2016-04-22 01:13:21,0.07,3.32,0.00,13.54,17.94,22.30,15.35,51.44,1028.56,2070.96,2304.50,2446.33,2682.04,600.04,622.84,46.39,0000 0000 0000 0000 000000
2016-04-22 01:18:22,0.05,3.33,0.00,13.54,17.95,22.35,15.34,51.65,1028.66,2070.93,2303.65,2445.82,2681.33,600.00,622.92,46.44,0000 0000 0000 0000 000000
2016-04-22 01:23:23,0.05,3.33,0.00,13.56,17.97,22.35,15.37,51.66,1028.60,2070.93,2302.89,2445.05,2680.67,599.90,622.80,46.49,0000 0000 0000 0000 000000
2016-04-22 01:28:25,0.06,3.33,0.00,13.60,17.97,22.33,15.36,51.62,1028.53,2070.93,2301.98,2444.44,2679.96,600.13,622.83,46.54,0000 0000 0000 0000 000000
2016-04-22 01:33:26,0.10,3.34,0.00,13.62,17.99,22.39,15.33,51.44,1028.67,2070.85,2300.54,2443.55,2678.79,600.08,622.97,46.59,0000 0000 0000 0000 000000
2016-04-22 01:38:27,0.12,3.35,0.00,13.65,18.00,22.35,15.30,51.51,1028.67,2070.69,2298.36,2442.05,2677.15,600.04,622.83,46.64,0000 0000 0000 0000 000000
2016-04-22 01:43:29,0.05,3.35,0.00,13.67,18.02,22.41,15.28,51.43,1028.74,2070.43,2297.35,2441.15,2676.21,599.86,622.65,46.69,0000 0000 0000 0000 000000
2016-04-22 01:48:30,0.08,3.35,0.00,13.68,18.02,22.42,15.33,51.52,1028.75,2070.36,2296.37,2440.42,2675.42,599.70,622.43,46.74,0000 0000 0000 0000 000000
2016-04-22 01:53:32,0.04,3.35,0.00,13.72,18.04,22.43,15.33,51.44,1028.75,2070.16,2295.45,2439.84,2674.62,599.72,622.36,46.79,0000 0000 0000 0000 000000
2016-04-22 01:58:33,0.04,3.36,0.00,13.75,18.05,22.48,15.32,51.42,1028.73,2070.09,2294.62,2439.06,2673.99,600.10,622.72,46.85,0000 0000 0000 0000 000000
2016-04-22 02:03:34,0.07,3.36,0.00,13.78,18.07,22.49,15.30,51.48,1028.78,2070.03,2293.76,2438.46,2673.13,599.84,622.38,46.90,0000 0000 0000 0000 000000
2016-04-22 02:08:35,0.08,3.36,0.00,13.79,18.08,22.50,15.29,51.41,1028.80,2070.03,2292.64,2437.78,2672.42,599.55,622.11,46.95,0000 0000 0000 0000 000000
2016-04-22 02:13:37,0.07,3.37,0.00,13.82,18.10,22.50,15.25,51.30,1028.78,2070.01,2291.40,2436.95,2671.59,599.90,622.48,47.00,0000 0000 0000 0000 000000
2016-04-22 02:18:38,0.15,3.37,0.00,13.84,18.12,22.55,15.33,51.44,1028.74,2070.01,2289.16,2435.81,2670.20,600.04,622.49,47.05,0000 0000 0000 0000 000000
2016-04-22 02:23:39,0.15,3.38,0.00,13.87,18.14,22.57,15.27,51.57,1028.78,2070.01,2286.82,2434.55,2668.82,599.85,622.18,47.10,0000 0000 0000 0000 000000
2016-04-22 02:28:41,0.09,3.39,0.00,13.92,18.15,22.58,15.32,51.42,1028.82,2070.01,2285.37,2433.66,2667.71,599.79,622.17,47.15,0000 0000 0000 0000 000000
2016-04-22 02:33:42,0.10,3.39,0.00,13.95,18.18,22.61,15.31,51.52,1028.82,2070.00,2284.04,2432.50,2666.62,600.25,622.34,47.20,0000 0000 0000 0000 000000
2016-04-22 02:38:43,0.09,3.40,0.00,13.97,18.19,22.66,15.27,51.38,1028.82,2070.00,2282.76,2431.67,2665.58,599.71,621.85,47.25,0000 0000 0000 0000 000000
2016-04-22 02:43:44,0.04,3.40,0.00,13.99,18.22,22.67,15.35,51.58,1028.82,2069.98,2281.80,2431.01,2664.85,600.05,622.08,47.30,0000 0000 0000 0000 000000
2016-04-22 02:48:46,0.07,3.41,0.00,14.01,18.24,22.66,15.33,51.71,1028.82,2069.98,2280.94,2430.25,2664.04,600.19,622.35,47.35,0000 0000 0000 0000 000000
2016-04-22 02:53:47,0.06,3.41,0.00,14.04,18.26,22.72,15.25,51.61,1028.80,2069.98,2280.09,2429.81,2663.37,600.09,622.06,47.40,0000 0000 0000 0000 000000
2016-04-22 02:58:48,0.06,3.41,0.00,14.07,18.28,22.76,15.31,51.63,1028.74,2069.97,2279.21,2429.05,2662.71,600.13,622.04,47.45,0000 0000 0000 0000 000000
2016-04-22 03:03:49,0.06,3.41,0.00,14.11,18.30,22.76,15.28,51.66,1028.69,2069.94,2278.34,2428.42,2661.99,600.07,621.85,47.50,0000 0000 0000 0000 000000
2016-04-22 03:08:51,0.01,3.42,0.00,14.15,18.33,22.78,15.29,51.56,1028.68,2069.64,2277.51,2427.88,2661.12,600.24,621.71,47.55,0000 0000 0000 0000 000000
2016-04-22 03:13:52,0.03,3.42,0.00,14.18,18.35,22.82,15.28,51.68,1028.71,2069.27,2276.72,2427.08,2660.51,599.98,621.48,47.60,0000 0000 0000 0000 000000
2016-04-22 03:18:54,0.03,3.42,0.00,14.20,18.38,22.82,15.27,51.68,1028.78,2069.11,2275.95,2426.66,2659.94,599.78,621.38,47.65,0000 0000 0000 0000 000000
2016-04-22 03:23:55,0.06,3.42,0.00,14.22,18.40,22.84,15.28,51.63,1028.79,2069.07,2275.07,2425.99,2659.11,600.17,621.84,47.70,0000 0000 0000 0000 000000
2016-04-22 03:28:56,0.07,3.43,0.00,14.26,18.43,22.84,15.34,51.61,1028.77,2069.01,2274.18,2425.20,2658.33,600.17,621.73,47.76,0000 0000 0000 0000 000000
2016-04-22 03:33:58,0.06,3.43,0.00,14.28,18.46,22.90,15.24,51.60,1028.67,2069.00,2273.39,2424.70,2657.73,600.19,621.66,47.81,0000 0000 0000 0000 000000
2016-04-22 03:38:59,0.05,3.43,0.00,14.32,18.48,22.90,15.25,51.67,1028.73,2069.00,2272.53,2424.02,2657.01,599.67,621.13,47.86,0000 0000 0000 0000 000000
2016-04-22 03:44:01,0.07,3.44,0.00,14.34,18.51,22.94,15.28,51.59,1028.71,2068.99,2271.72,2423.30,2656.17,600.00,621.18,47.91,0000 0000 0000 0000 000000
2016-04-22 03:49:01,0.06,3.44,0.00,14.37,18.54,22.96,15.32,51.51,1028.75,2068.98,2270.80,2422.78,2655.47,600.08,621.31,47.96,0000 0000 0000 0000 000000
2016-04-22 03:54:03,0.07,3.44,0.00,14.39,18.56,23.00,15.28,51.68,1028.64,2068.96,2269.84,2421.98,2654.65,600.06,621.21,48.01,0000 0000 0000 0000 000000
2016-04-22 03:59:04,0.08,3.45,0.00,14.43,18.58,23.04,15.22,51.62,1028.65,2068.88,2268.76,2421.10,2653.66,599.81,620.82,48.06,0000 0000 0000 0000 000000
2016-04-22 04:04:05,0.04,3.45,0.00,14.46,18.61,23.07,15.32,51.67,1028.71,2068.63,2267.71,2420.28,2652.81,599.94,620.97,48.11,0000 0000 0000 0000 000000
2016-04-22 04:09:07,0.03,3.45,0.00,14.48,18.63,23.07,15.26,51.67,1028.76,2068.22,2266.68,2419.62,2651.98,599.85,620.78,48.16,0000 0000 0000 0000 000000
2016-04-22 04:14:08,0.05,3.45,0.00,14.49,18.66,23.09,15.29,51.70,1028.68,2068.04,2265.74,2418.90,2651.11,600.19,621.14,48.21,0000 0000 0000 0000 000000
2016-04-22 04:19:09,0.07,3.46,0.00,14.53,18.69,23.16,15.28,51.67,1028.56,2068.02,2264.80,2418.07,2650.28,599.88,620.67,48.26,0000 0000 0000 0000 000000
2016-04-22 04:24:10,0.07,3.46,0.00,14.56,18.72,23.19,15.27,51.48,1028.50,2068.01,2263.99,2417.35,2649.58,599.91,620.63,48.31,0000 0000 0000 0000 000000
2016-04-22 04:29:11,0.04,3.46,0.00,14.59,18.74,23.18,15.18,51.45,1028.42,2068.00,2263.12,2416.86,2648.91,599.54,620.11,48.36,0000 0000 0000 0000 000000
2016-04-22 04:34:12,0.07,3.47,0.00,14.60,18.77,23.21,15.26,51.53,1028.39,2068.00,2262.18,2416.07,2648.07,600.17,620.74,48.41,0000 0000 0000 0000 000000
2016-04-22 04:39:13,0.08,3.47,0.00,14.63,18.79,23.25,15.23,51.50,1028.41,2067.99,2261.30,2415.42,2647.28,599.94,620.42,48.46,0000 0000 0000 0000 000000
2016-04-22 04:44:15,0.07,3.47,0.00,14.66,18.82,23.28,15.24,51.44,1028.42,2067.98,2260.39,2414.74,2646.44,599.97,620.39,48.51,0000 0000 0000 0000 000000
2016-04-22 04:49:16,0.04,3.48,0.00,14.68,18.84,23.28,15.25,51.46,1028.51,2067.93,2259.57,2414.02,2645.79,600.03,620.56,48.56,0000 0000 0000 0000 000000
2016-04-22 04:54:17,0.06,3.48,0.00,14.71,18.87,23.31,15.18,51.32,1028.56,2067.87,2258.68,2413.30,2645.00,599.72,620.04,48.61,0000 0000 0000 0000 000000
2016-04-22 04:59:19,0.03,3.48,0.00,14.73,18.89,23.38,15.23,51.52,1028.58,2067.55,2257.77,2412.73,2644.17,599.84,620.25,48.67,0000 0000 0000 0000 000000
2016-04-22 05:04:20,0.03,3.49,0.00,14.75,18.92,23.40,15.19,51.46,1028.56,2067.26,2256.92,2412.02,2643.43,599.49,619.71,48.72,0000 0000 0000 0000 000000
2016-04-22 05:09:21,0.05,3.49,0.00,14.77,18.94,23.38,15.26,51.58,1028.51,2067.12,2256.02,2411.36,2642.80,600.05,620.16,48.77,0000 0000 0000 0000 000000
2016-04-22 05:14:22,0.07,3.49,0.00,14.79,18.97,23.40,15.22,51.48,1028.46,2067.05,2255.00,2410.61,2641.92,599.84,620.04,48.82,0000 0000 0000 0000 000000
2016-04-22 05:19:24,0.06,3.50,0.00,14.82,18.99,23.43,15.24,51.49,1028.47,2067.01,2253.95,2409.89,2641.04,600.14,620.34,48.87,0000 0000 0000 0000 000000
2016-04-22 05:24:25,0.08,3.50,0.00,14.83,19.02,23.51,15.28,51.48,1028.46,2067.00,2252.91,2409.05,2640.16,600.03,620.10,48.92,0000 0000 0000 0000 000000
2016-04-22 05:29:27,0.09,3.50,0.00,14.85,19.04,23.53,15.29,51.49,1028.46,2067.00,2251.79,2408.22,2639.24,599.90,619.96,48.97,0000 0000 0000 0000 000000
2016-04-22 05:34:28,0.09,3.51,0.00,14.88,19.07,23.54,15.25,51.58,1028.38,2067.00,2250.62,2407.43,2638.39,600.11,620.00,49.02,0000 0000 0000 0000 000000
2016-04-22 05:39:30,0.07,3.51,0.00,14.91,19.09,23.52,15.29,51.50,1028.39,2066.99,2249.72,2406.72,2637.58,600.12,620.01,49.07,0000 0000 0000 0000 000000
2016-04-22 05:44:31,0.05,3.52,0.00,14.93,19.12,23.58,15.29,51.57,1028.50,2066.97,2248.83,2406.00,2636.80,600.08,620.03,49.12,0000 0000 0000 0000 000000
2016-04-22 05:49:32,0.08,3.52,0.00,14.95,19.14,23.62,15.24,51.42,1028.67,2066.95,2247.70,2405.18,2635.93,600.09,620.02,49.17,0000 0000 0000 0000 000000
2016-04-22 05:54:33,0.05,3.52,0.00,14.96,19.17,23.65,15.20,51.54,1028.58,2066.90,2246.92,2404.57,2635.08,599.72,619.58,49.22,0000 0000 0000 0000 000000
2016-04-22 05:59:35,0.03,3.53,0.00,14.99,19.19,23.67,15.29,51.53,1028.49,2066.68,2246.00,2403.93,2634.38,600.29,620.14,49.27,0000 0000 0000 0000 000000
2016-04-22 06:04:36,0.04,3.53,0.00,15.01,19.22,23.66,15.24,51.43,1028.46,2066.31,2245.06,2403.11,2633.65,599.97,619.72,49.32,0000 0000 0000 0000 000000
2016-04-22 06:09:38,0.05,3.53,0.00,15.03,19.24,23.69,15.24,51.38,1028.50,2066.10,2244.15,2402.51,2632.91,599.95,619.64,49.37,0000 0000 0000 0000 000000
2016-04-22 06:14:39,0.05,3.53,0.00,15.04,19.26,23.74,15.19,51.63,1028.43,2066.04,2243.34,2401.97,2632.07,599.72,619.45,49.42,0000 0000 0000 0000 000000
2016-04-22 06:19:40,0.08,3.54,0.00,15.05,19.29,23.78,15.17,51.42,1028.39,2066.01,2242.60,2401.20,2631.46,599.75,619.32,49.47,0000 0000 0000 0000 000000
2016-04-22 06:24:41,0.06,3.54,0.00,15.07,19.31,23.79,15.12,51.54,1028.41,2066.01,2241.75,2400.66,2630.76,599.52,619.12,49.52,0000 0000 0000 0000 000000
2016-04-22 06:29:43,0.05,3.54,0.00,15.09,19.33,23.82,15.14,51.56,1028.49,2066.00,2240.88,2399.96,2629.91,599.66,619.07,49.58,0000 0000 0000 0000 000000
2016-04-22 06:34:44,0.07,3.55,0.00,15.10,19.36,23.83,15.27,51.54,1028.49,2066.00,2239.97,2399.11,2629.06,600.09,619.62,49.63,0000 0000 0000 0000 000000
2016-04-22 06:39:45,0.09,3.55,0.00,15.12,19.38,23.84,15.20,51.69,1028.48,2065.99,2239.00,2398.26,2628.13,599.99,619.41,49.68,0000 0000 0000 0000 000000
2016-04-22 06:44:46,0.08,3.55,0.00,15.14,19.41,23.86,15.26,51.66,1028.48,2065.98,2238.07,2397.47,2627.18,600.05,619.41,49.73,0000 0000 0000 0000 000000
2016-04-22 06:49:48,0.04,3.56,0.00,15.16,19.43,23.86,15.14,51.59,1028.49,2065.88,2237.18,2396.92,2626.59,600.00,619.41,49.78,0000 0000 0000 0000 000000
2016-04-22 06:54:49,0.04,3.56,0.00,15.19,19.45,23.90,15.21,51.56,1028.41,2065.62,2236.43,2396.10,2625.94,599.87,619.14,49.83,0000 0000 0000 0000 000000
2016-04-22 06:59:50,0.04,3.56,0.00,15.20,19.48,23.92,15.14,51.33,1028.39,2065.51,2235.78,2395.79,2625.11,599.62,618.89,49.88,0000 0000 0000 0000 000000
2016-04-22 07:04:52,0.03,3.56,0.00,15.23,19.50,23.87,15.16,51.48,1028.42,2065.21,2234.77,2395.00,2624.40,599.70,619.00,49.93,0000 0000 0000 0000 000000
2016-04-22 07:09:53,0.06,3.57,0.00,15.27,19.52,23.96,15.22,51.44,1028.48,2065.06,2233.90,2394.14,2623.69,599.87,619.02,49.98,0000 0000 0000 0000 000000
2016-04-22 07:14:55,0.05,3.57,0.00,15.29,19.54,24.00,15.21,51.43,1028.40,2065.03,2233.06,2393.80,2623.03,600.11,619.27,50.03,0000 0000 0000 0000 000000
2016-04-22 07:19:56,0.07,3.57,0.00,15.32,19.57,23.99,15.19,51.55,1028.43,2065.00,2232.29,2393.05,2622.51,599.93,618.95,50.08,0000 0000 0000 0000 000000
2016-04-22 07:24:57,0.09,3.58,0.00,15.35,19.59,24.02,15.22,51.63,1028.45,2065.01,2231.21,2392.21,2621.55,600.30,619.19,50.13,0000 0000 0000 0000 000000
2016-04-22 07:29:59,0.07,3.58,0.00,15.38,19.62,24.06,15.19,51.59,1028.49,2065.00,2230.19,2391.61,2620.78,600.07,619.01,50.18,0000 0000 0000 0000 000000
2016-04-22 07:35:00,0.06,3.58,0.00,15.42,19.64,24.11,15.26,51.64,1028.52,2064.99,2229.30,2390.83,2619.96,600.16,619.03,50.23,0000 0000 0000 0000 000000
2016-04-22 07:40:01,0.07,3.59,0.00,15.44,19.67,24.13,15.23,51.61,1028.44,2064.99,2228.53,2390.04,2619.11,600.19,619.01,50.28,0000 0000 0000 0000 000000
2016-04-22 07:45:02,0.08,3.59,0.00,15.48,19.69,24.14,15.24,51.63,1028.57,2064.98,2227.57,2389.45,2618.42,600.05,618.91,50.33,0000 0000 0000 0000 000000
2016-04-22 07:50:03,0.12,3.60,0.00,15.52,19.72,24.11,15.21,51.39,1028.64,2064.96,2226.02,2388.28,2617.10,600.20,618.93,50.38,0000 0000 0000 0000 000000
2016-04-22 07:55:05,0.16,3.60,0.00,15.56,19.74,24.14,15.27,51.52,1028.78,2064.86,2223.91,2386.73,2615.41,600.26,618.99,50.43,0000 0000 0000 0000 000000
2016-04-22 08:00:06,0.10,3.61,0.00,15.60,19.77,24.16,15.20,51.31,1028.81,2064.33,2221.55,2385.08,2613.61,599.88,618.54,50.49,0000 0000 0000 0000 000000
2016-04-22 08:05:08,0.15,3.62,0.00,15.64,19.80,24.23,15.20,51.39,1028.82,2064.13,2219.29,2383.53,2611.84,599.96,618.53,50.54,0000 0000 0000 0000 000000
2016-04-22 08:10:09,0.19,3.63,0.00,15.66,19.83,24.24,15.16,51.39,1028.82,2064.03,2217.06,2381.71,2609.87,599.71,618.22,50.59,0000 0000 0000 0000 000000
2016-04-22 08:15:10,0.13,3.64,0.00,15.69,19.85,24.26,15.15,51.47,1028.82,2064.00,2215.09,2380.13,2608.08,599.91,618.34,50.64,0000 0000 0000 0000 000000
2016-04-22 08:20:11,0.13,3.64,0.00,15.71,19.88,24.27,15.22,51.62,1028.82,2064.00,2213.51,2378.83,2606.64,599.97,618.38,50.69,0000 0000 0000 0000 000000
2016-04-22 08:25:13,0.11,3.65,0.00,15.74,19.91,24.32,15.21,51.43,1028.83,2064.00,2211.94,2377.77,2605.48,600.29,618.81,50.74,0000 0000 0000 0000 000000
2016-04-22 08:30:14,0.14,3.65,0.00,15.78,19.94,24.29,15.18,51.48,1028.83,2063.99,2210.23,2376.54,2604.06,599.97,618.25,50.79,0000 0000 0000 0000 000000
2016-04-22 08:35:15,0.14,3.66,0.00,15.78,19.97,24.31,15.19,51.48,1028.84,2063.96,2208.29,2375.12,2602.57,599.66,617.93,50.84,0000 0000 0000 0000 000000
2016-04-22 08:40:17,0.09,3.67,0.00,15.79,20.00,24.35,15.21,51.58,1028.85,2063.74,2206.61,2373.84,2601.19,600.07,618.34,50.89,0000 0000 0000 0000 000000
2016-04-22 08:45:18,0.07,3.67,0.00,15.82,20.03,24.38,15.21,51.53,1028.88,2063.27,2205.04,2372.76,2599.91,600.04,618.15,50.94,0000 0000 0000 0000 000000
2016-04-22 08:50:20,0.09,3.68,0.00,15.83,20.06,24.40,15.16,51.33,1028.89,2063.03,2203.69,2371.72,2598.76,599.81,618.01,50.99,0000 0000 0000 0000 000000
2016-04-22 08:55:21,0.10,3.68,0.00,15.84,20.08,24.44,15.24,51.40,1028.87,2063.01,2202.46,2370.71,2597.64,600.16,618.22,51.04,0000 0000 0000 0000 000000
2016-04-22 09:00:22,0.10,3.69,0.00,15.85,20.12,24.49,15.13,51.24,1028.85,2063.00,2201.17,2369.65,2596.46,600.02,618.07,51.09,0000 0000 0000 0000 000000
2016-04-22 09:05:23,0.10,3.69,0.00,15.85,20.14,24.54,15.17,51.38,1028.89,2063.00,2199.83,2368.67,2595.36,599.75,617.89,51.14,0000 0000 0000 0000 000000
2016-04-22 09:10:25,0.10,3.70,0.00,15.86,20.17,24.55,15.24,51.38,1028.87,2062.98,2198.58,2367.68,2594.34,599.97,618.08,51.19,0000 0000 0000 0000 000000
2016-04-22 09:15:26,0.07,3.70,0.00,15.87,20.19,24.64,15.19,51.38,1028.99,2062.96,2197.34,2366.88,2593.18,599.69,617.80,51.24,0000 0000 0000 0000 000000
2016-04-22 09:20:28,0.13,3.71,0.00,15.88,20.21,24.61,15.18,51.33,1029.04,2062.87,2195.82,2365.70,2591.86,600.33,618.52,51.29,0000 0000 0000 0000 000000
2016-04-22 09:25:29,0.14,3.72,0.00,15.87,20.23,24.64,15.21,51.45,1029.03,2062.63,2193.73,2363.98,2589.96,600.06,618.26,51.34,0000 0000 0000 0000 000000
2016-04-22 09:30:30,0.31,3.73,0.00,15.88,20.25,24.70,15.21,51.52,1029.12,2062.28,2190.17,2361.18,2586.86,599.70,617.92,51.40,0000 0000 0000 0000 000000
2016-04-22 09:35:32,0.45,3.75,0.00,15.88,20.27,24.74,15.20,51.45,1029.23,2062.09,2184.94,2356.81,2582.11,600.22,618.58,51.45,0000 0000 0000 0000 000000
2016-04-22 09:40:33,0.39,3.77,0.00,15.88,20.28,24.75,15.23,51.57,1029.18,2062.03,2180.11,2352.68,2577.58,599.96,618.22,51.50,0000 0000 0000 0000 000000
2016-04-22 09:45:34,0.24,3.79,0.00,15.85,20.29,24.75,15.22,51.59,1029.21,2062.02,2176.83,2350.02,2574.62,599.96,618.30,51.55,0000 0000 0000 0000 000000
2016-04-22 09:50:35,0.17,3.80,0.00,15.85,20.31,24.76,15.25,51.61,1029.24,2062.01,2174.57,2348.27,2572.71,600.22,618.66,51.60,0000 0000 0000 0000 000000
2016-04-22 09:55:37,0.17,3.80,0.00,15.84,20.32,24.75,15.27,51.86,1029.31,2062.00,2172.55,2346.67,2570.92,599.94,618.37,51.65,0000 0000 0000 0000 000000
2016-04-22 10:00:38,0.14,3.81,0.00,15.85,20.33,24.71,15.26,51.73,1029.31,2062.00,2170.59,2345.17,2569.23,600.51,619.00,51.70,0000 0000 0000 0000 000000
2016-04-22 10:05:40,0.16,3.82,0.00,15.84,20.34,24.77,15.26,51.63,1029.31,2062.00,2168.69,2343.68,2567.59,600.17,618.63,51.75,0000 0000 0000 0000 000000
2016-04-22 10:10:41,0.27,3.83,0.00,15.84,20.34,24.71,15.22,51.67,1029.31,2061.99,2165.62,2341.45,2565.18,599.79,618.37,51.80,0000 0000 0000 0000 000000
2016-04-22 10:15:42,0.19,3.84,0.00,15.81,20.37,24.79,15.21,51.55,1029.31,2061.99,2162.72,2339.46,2562.94,600.04,618.54,51.85,0000 0000 0000 0000 000000
2016-04-22 10:20:43,0.19,3.85,0.00,15.81,20.37,24.79,15.25,51.57,1029.31,2061.99,2160.46,2337.78,2561.15,599.99,618.46,51.90,0000 0000 0000 0000 000000
2016-04-22 10:25:45,0.16,3.86,0.00,15.80,20.37,24.75,15.23,51.46,1029.31,2061.99,2158.13,2336.14,2559.37,600.02,618.57,51.95,0000 0000 0000 0000 000000
2016-04-22 10:30:46,0.15,3.87,0.00,15.79,20.38,24.72,15.21,51.37,1029.31,2061.98,2156.25,2334.69,2557.99,599.73,618.29,52.00,0000 0000 0000 0000 000000
2016-04-22 10:35:47,0.13,3.88,0.00,15.80,20.39,24.76,15.17,51.35,1029.31,2061.98,2154.53,2333.50,2556.60,599.80,618.30,52.05,0000 0000 0000 0000 000000
2016-04-22 10:40:49,0.13,3.88,0.00,15.79,20.39,24.79,15.18,51.36,1029.31,2061.96,2152.79,2332.34,2555.39,600.10,618.65,52.10,0000 0000 0000 0000 000000
2016-04-22 10:45:50,0.10,3.89,0.00,15.77,20.39,24.74,15.22,51.38,1029.31,2061.98,2151.36,2331.33,2554.24,600.11,618.69,52.15,0000 0000 0000 0000 000000
2016-04-22 10:50:51,0.10,3.90,0.00,15.76,20.39,24.75,15.22,51.43,1029.32,2061.95,2149.97,2330.46,2553.17,599.92,618.35,52.20,0000 0000 0000 0000 000000
2016-04-22 10:55:52,0.18,3.90,0.00,15.76,20.39,24.74,15.24,51.52,1029.31,2061.97,2148.25,2329.06,2551.63,600.31,618.90,52.26,0000 0000 0000 0000 000000
2016-04-22 11:00:54,0.17,3.91,0.00,15.74,20.37,24.72,15.30,51.78,1029.31,2061.94,2146.03,2327.25,2549.64,600.24,618.88,52.31,0000 0000 0000 0000 000000
2016-04-22 11:05:55,0.15,3.92,0.00,15.74,20.37,24.66,15.26,51.51,1029.31,2061.95,2144.20,2325.85,2548.13,600.21,618.86,52.36,0000 0000 0000 0000 000000
2016-04-22 11:10:56,0.23,3.93,0.00,15.75,20.37,24.68,15.22,51.41,1029.31,2061.97,2140.92,2324.16,2546.21,599.67,618.37,52.41,0000 0000 0000 0000 000000
2016-04-22 11:15:57,0.20,3.94,0.00,15.78,20.37,24.65,15.32,51.63,1029.31,2061.95,2137.80,2322.46,2544.39,600.26,618.82,52.46,0000 0000 0000 0000 000000
2016-04-22 11:20:58,0.11,3.95,0.00,15.80,20.37,24.72,15.20,51.52,1029.32,2061.96,2136.10,2321.29,2543.18,599.94,618.55,52.51,0000 0000 0000 0000 000000
2016-04-22 11:26:00,0.09,3.95,0.00,15.84,20.35,24.68,15.23,51.58,1029.33,2061.93,2134.92,2320.49,2542.19,600.01,618.45,52.56,0000 0000 0000 0000 000000
2016-04-22 11:31:01,0.07,3.96,0.00,15.87,20.34,24.66,15.27,51.73,1029.34,2061.97,2133.86,2319.91,2541.39,599.98,618.37,52.61,0000 0000 0000 0000 000000
2016-04-22 11:36:03,0.07,3.96,0.00,15.82,20.34,24.76,15.21,51.74,1029.33,2061.97,2132.94,2319.11,2540.76,600.06,618.47,52.66,0000 0000 0000 0000 000000
2016-04-22 11:41:04,0.08,3.97,0.00,15.75,20.33,24.68,15.21,51.66,1029.34,2061.96,2131.93,2318.49,2539.97,600.00,618.64,52.71,0000 0000 0000 0000 000000
2016-04-22 11:46:05,0.07,3.97,0.00,15.67,20.32,24.72,15.20,51.72,1029.32,2061.97,2130.86,2317.83,2539.12,600.13,618.93,52.76,0000 0000 0000 0000 000000
2016-04-22 11:51:07,0.08,3.98,0.00,15.61,20.32,24.61,15.39,51.78,1029.33,2061.97,2129.82,2317.03,2538.27,600.04,618.94,52.81,0000 0000 0000 0000 000000
2016-04-22 11:56:08,0.10,3.98,0.00,15.54,20.29,24.63,15.21,51.67,1029.33,2061.98,2128.69,2316.31,2537.53,599.76,618.83,52.86,0000 0000 0000 0000 000000
2016-04-22 12:01:10,0.07,3.98,0.00,15.49,20.29,24.58,15.21,51.66,1029.32,2061.98,2127.59,2315.69,2536.84,599.90,619.08,52.91,0000 0000 0000 0000 000000
2016-04-22 12:06:11,0.07,3.99,0.00,15.45,20.27,24.54,15.24,51.76,1029.33,2061.99,2126.49,2315.00,2536.04,599.91,619.18,52.96,0000 0000 0000 0000 000000
2016-04-22 12:11:12,0.09,3.99,0.00,15.40,20.26,24.55,15.25,51.71,1029.32,2061.99,2125.48,2314.22,2535.26,600.21,619.59,53.01,0000 0000 0000 0000 000000
2016-04-22 12:16:13,0.07,4.00,0.00,15.34,20.24,24.45,15.29,51.68,1029.31,2061.99,2124.41,2313.74,2534.59,599.97,619.49,53.06,0000 0000 0000 0000 000000
2016-04-22 12:21:15,0.06,4.00,0.00,15.32,20.22,24.44,15.29,51.67,1029.31,2061.99,2123.44,2313.02,2533.93,599.86,619.46,53.11,0000 0000 0000 0000 000000
2016-04-22 12:26:16,0.09,4.00,0.00,15.28,20.21,24.34,15.24,51.45,1029.31,2062.00,2122.23,2312.19,2533.08,599.85,619.45,53.16,0000 0000 0000 0000 000000
2016-04-22 12:31:18,0.08,4.01,0.00,15.27,20.19,24.30,15.22,51.56,1029.31,2062.00,2121.16,2311.63,2532.24,600.12,619.81,53.21,0000 0000 0000 0000 000000
2016-04-22 12:36:19,0.06,4.01,0.00,15.24,20.17,24.26,15.30,51.56,1029.31,2062.03,2120.21,2311.00,2531.69,600.33,619.98,53.27,0000 0000 0000 0000 000000
2016-04-22 12:41:20,0.09,4.02,0.00,15.19,20.15,24.21,15.24,51.73,1029.31,2062.06,2119.35,2310.33,2531.01,599.91,619.56,53.32,0000 0000 0000 0000 000000
2016-04-22 12:46:21,0.10,4.02,0.00,15.16,20.13,24.20,15.28,51.79,1029.31,2062.33,2118.39,2309.89,2530.24,599.85,619.60,53.37,0000 0000 0000 0000 000000
2016-04-22 12:51:22,0.11,4.03,0.00,15.13,20.11,24.29,15.34,51.82,1029.31,2062.67,2117.50,2309.07,2529.58,599.99,619.79,53.42,0000 0000 0000 0000 000000
2016-04-22 12:56:23,0.09,4.03,0.00,15.09,20.09,24.19,15.25,51.63,1029.31,2062.80,2116.50,2308.56,2528.91,600.12,620.08,53.47,0000 0000 0000 0000 000000